Location: Izdebno
(52.6670°N, 16.2170°E)
Time: 11:38:01
(UTC+01:00)

Tiros 1 - Visible Passes

Search period start: 23 February 2024 00:00
Search period end: 04 March 2024 00:00
Orbit: 625 x 658 km, 48.4° (Epoch: 22 February)

Date Brightness Start Highest point End Pass type
(mag) Time Alt. Az. Time Alt. Az. Time Alt. Az.
27 Feb 9.8 20:36:19 10° SW 20:36:24 10° SW 20:36:24 10° SW visible
28 Feb 8.8 19:19:58 10° S 19:22:40 18° SSE 19:22:40 18° SSE visible
28 Feb 9.8 21:00:01 10° SW 21:00:15 11° SW 21:00:15 11° SW visible
29 Feb 8.4 19:43:00 10° SSW 19:46:24 27° SSE 19:46:24 27° SSE visible
01 Mar 8.9 18:26:50 10° S 18:29:49 17° SE 18:32:26 11° ESE visible
01 Mar 8.1 20:06:37 10° SW 20:10:01 34° SSW 20:10:01 34° SSW visible
02 Mar 8.4 18:49:42 10° SSW 18:53:39 26° SSE 18:55:57 18° ESE visible
02 Mar 8.3 20:30:33 10° WSW 20:33:32 34° SW 20:33:32 34° SW visible
03 Mar 7.9 19:13:14 10° SW 19:17:37 37° SSE 19:19:25 27° ESE visible
03 Mar 8.8 20:54:38 10° WSW 20:56:58 27° WSW 20:56:58 27° WSW visible
